FW6920 Weather Reports


Display with metric or nautical units.
time (UTC)temp
F
wind
direction
speed
MPH
gust
MPH
rain 1hr
in
rain 24hr
in
rain mn
in
humidity
%
barometer
mb
20260505163107 67 320 12.0 19.0 0.00 0.00 0.00 59 1015.2
20260505161530 66 323 12.0 18.0 0.00 0.00 0.00 59 1015.3
20260505153028 64 327 8.0 12.0 0.00 0.00 0.00 64 1015.1
20260505151532 62 325 9.0 14.0 0.00 0.00 0.00 67 1015.0
20260505130107 57 320 8.0 13.0 0.00 0.00 0.00 75 1013.6
20260505123031 58 316 9.0 14.0 0.00 0.00 0.00 72 1013.4
20260505121529 59 315 10.0 16.0 0.00 0.00 0.00 72 1013.3
20260505120040 59 314 11.0 17.0 0.00 0.00 0.00 72 1013.1
20260505114535 59 316 11.0 18.0 0.00 0.00 0.00 72 1013.0
20260505113032 59 315 10.0 18.0 0.00 0.00 0.00 72 1013.0
20260505101531 62 315 12.0 18.0 0.00 0.00 0.00 68 1012.4
20260505100039 62 313 12.0 19.0 0.00 0.00 0.00 68 1012.3
20260505094531 62 314 12.0 19.0 0.00 0.00 0.00 68 1012.1
20260505091529 63 311 10.0 18.0 0.00 0.00 0.00 67 1012.0
20260505090030 63 311 8.0 15.0 0.00 0.00 0.00 67 1011.9
20260505083030 64 313 8.0 14.0 0.00 0.00 0.00 65 1011.9
20260505081535 64 314 7.0 14.0 0.00 0.00 0.00 63 1011.9
20260505080034 65 313 7.0 11.0 0.00 0.00 0.00 63 1011.9
20260505073106 66 316 7.0 15.0 0.00 0.00 0.00 60 1011.7
20260505071608 66 312 11.0 23.0 0.00 0.00 0.00 61 1011.4
20260505070033 65 313 9.0 18.0 0.00 0.00 0.00 60 1011.5
20260505064529 66 300 5.0 9.0 0.00 0.00 0.00 58 1011.6
20260505063029 67 299 8.0 17.0 0.00 0.00 0.00 56 1011.3
20260505061530 67 309 14.0 22.0 0.00 0.00 0.00 55 1010.9
20260505060045 68 312 15.0 23.0 0.00 0.00 0.00 53 1010.8
20260505054607 68 313 15.0 22.0 0.00 0.00 0.00 52 1010.7
20260505053031 69 310 15.0 22.0 0.00 0.00 0.00 51 1010.9
20260505051536 69 308 11.0 19.0 0.00 0.00 0.00 49 1011.0
20260505041530 71 310 14.0 23.0 0.00 0.00 0.00 46 1009.9
20260505034528 72 308 13.0 21.0 0.00 0.00 0.00 47 1009.6
20260505030032 73 303 11.0 23.0 0.00 0.00 0.00 46 1009.2
20260505024529 74 306 11.0 21.0 0.00 0.00 0.00 46 1009.0
20260505023030 75 307 10.0 17.0 0.00 0.00 0.00 45 1009.0
20260505020103 79 310 11.0 17.0 0.00 0.00 0.00 42 1009.0
20260505014603 81 324 9.0 18.0 0.00 0.00 0.00 41 1009.0
20260505010032 82 326 13.0 18.0 0.00 0.00 0.00 40 1008.9
20260505003031 83 330 14.0 19.0 0.00 0.00 0.00 39 1008.9
20260505001528 83 323 15.0 27.0 0.00 0.00 0.00 39 1009.0
20260505000035 84 323 16.0 25.0 0.00 0.00 0.00 39 1009.0
20260504234528 84 325 16.0 27.0 0.00 0.00 0.00 38 1008.8
20260504231529 85 325 16.0 23.0 0.00 0.00 0.00 37 1009.1
20260504230032 86 323 15.0 21.0 0.00 0.00 0.00 36 1009.2
20260504224531 87 323 14.0 21.0 0.00 0.00 0.00 36 1009.4
20260504223031 87 322 14.0 17.0 0.00 0.00 0.00 36 1009.6
20260504221538 86 326 14.0 18.0 0.00 0.00 0.00 37 1009.8
20260504220147 85 324 12.0 20.0 0.00 0.00 0.00 38 1009.9
20260504214530 84 322 12.0 21.0 0.00 0.00 0.00 38 1010.1
20260504213030 83 320 11.0 15.0 0.00 0.00 0.00 39 1010.2
20260504211534 83 328 11.0 16.0 0.00 0.00 0.00 39 1010.4
20260504210031 82 317 11.0 19.0 0.00 0.00 0.00 40 1010.5
20260504204530 81 319 13.0 21.0 0.00 0.00 0.00 41 1010.7
20260504201529 79 318 13.0 25.0 0.00 0.00 0.00 43 1010.9
20260504200033 79 319 12.0 24.0 0.00 0.00 0.00 44 1011.1
20260504194530 78 320 12.0 25.0 0.00 0.00 0.00 44 1011.1
20260504193030 78 321 12.0 17.0 0.00 0.00 0.00 44 1011.2
20260504191531 77 321 12.0 30.0 0.00 0.00 0.00 45 1011.3
20260504190031 77 321 12.0 28.0 0.00 0.00 0.00 45 1011.3
20260504184531 77 322 12.0 22.0 0.00 0.00 0.00 45 1011.4
20260504181530 75 324 14.0 34.0 0.00 0.00 0.00 47 1011.4
20260504180031 74 329 13.0 35.0 0.00 0.00 0.00 48 1011.5
20260504174530 73 330 12.0 24.0 0.00 0.00 0.00 50 1011.6
20260504173030 72 311 1.0 9.0 0.00 0.00 0.00 50 1011.6
20260504171529 72 331 4.0 9.0 0.00 0.00 0.00 50 1011.7